Showing default

METEOSAT 6, 22912

Orbit data source: Space-Track

METEOSAT 6, 22912 is a payload satellite owned by EUMETSAT (DE) in GEO that was launched on Sat, 20 Nov 1993 UTC via an ARIANE 44LP launch vehicle from the French Guiana (FRGUI). Payload-class satellites include a variety of spacecraft equipped with specific instruments for various scientific and technological missions. These include communications satellites like Starlink; space stations such as the ISS; scientific satellites like the Hubble; Earth observation satellites from companies like Planet Labs, Umbra, and HawkEye 360; GPS; miniature CubeSats for education and research; and military/defense satellites.

Not visible in the next 10 days
Identifier
22912, 1993-073B
Orbit
GEO
Country
Flag of DEDE / EUME
Related business
Manufacturer
Ae/Cannes
Mission
Non-operational Civil Weather
Bus & Motor
METEOSAT, MAGE 1
Mass
318 kg wet, 278 kg dry
Launch date (UTC)
1993-11-20 (33 years ago)
Launch vehicle
ARIANE 44LP
Launch site
French Guiana (FRGUI)
Object type
Payload
Rocket body
Debris
Shape & HBR
Cyl + Cyl + 1 Ant, 1.7 m
Radar Cross Section
4.680 m², Large (>1 m²)

Expand to show TLE details & history
Last TLE update: 9 hours ago

TLE from 9 hours ago
0 METEOSAT 6
1 22912U 93073B   26266.55160199 -.00000235  00000-0  00000-0 0  9997
2 22912  14.5078   0.5816 0009302 235.7121 133.6909  0.98986922117999
Epoch: 2026-09-23T13:14Z
TLE epoch observation values (Epoch: 2026-09-23T13:14:18.411Z)
Latitude
2.35648°
Longitude
168.76197°
Altitude
36,177.339 km
Speed
3.06 km/s
True Right ascension
00h 38m 57s
True Declination
2° 21' 15"
Sunlit
Object was in daylight at epoch
Visualization orbit readout
Latitude
Unknown
Longitude
Unknown
Altitude
Unknown
Speed
Unknown
Apparent Right ascension
Unknown
Apparent Declination
Unknown
Sunlit
N/A
Visualization observer readout
Local Sidereal Time
15:22:15
Azimuth
Unknown
Elevation
Unknown
Doppler factor
Unknown
Orbital elements
Apogee altitude
36,191.205 km
Perigee altitude
36,112.082 km
Semi-major axis
42,529.78 km
Eccentricity
0.00093
Inclination
14.5078°
RAAN
0.5816°
Arg. of periapsis
235.7121°
True anomaly
133.76791°
Mean anomaly
133.6909°
Eccentric anomaly
133.72941°
Mean motion
0.24746 °/min
Orbital period
1,454.79 mins
BSTAR
0
Loading maneuver chart data...
Computing Atmospheric mass density...
Loading historical data...
Loading historical data...
Loading historical data...
Loading historical data...
Loading historical data...
Loading historical data...
Loading historical data...

Documentation

Showing up to 5 results
|